Location: Bühlhof
(48.7849°N, 8.6361°E)
Time: 22:41:06
(UTC+00:00)

CZ-2D R/B - Pass Details

Date: 19 January 2026
Orbit: 525 x 595 km, 98.0° (Epoch: 7 February)

Event Time Altitude Azimuth Distance (km) Brightness Sun altitude
Rises 16:55:45 0° 136° (SE) 2,661 6.6 -8.7°
Reaches altitude 10° 16:58:03 10° 124° (SE) 1,772 5.6 -9.1°
Maximum altitude 17:01:17 27° 66° (ENE) 1,042 4.1 -9.6°
Drops below altitude 10° 17:04:32 10° 8° (N) 1,780 5.7 -10.1°
Sets 17:06:52 0° 356° (N) 2,677 6.7 -10.4°
